[Iaude] MPEC F116: 2024 FO3 [a=1.92,e=0.50,i=7.6,H=27.7]
    mpec at cfa.harvard.edu 
    mpec at cfa.harvard.edu
       
    Sun Mar 31 09:18:01 EDT 2024
    
    
  
M.P.E.C. 2024-F116                               Issued 2024 March 31, 13:16 UT
     The Minor Planet Electronic Circulars contain information on unusual
         minor planets, routine data on comets and natural satellites,
         and occasional editorial announcements.  They are published
    on behalf of Division F of the International Astronomical Union by the
          Minor Planet Center, Smithsonian Astrophysical Observatory,
                          Cambridge, MA 02138, U.S.A.
			  
             Prepared using the Tamkin Foundation Computer Network
                              MPC at CFA.HARVARD.EDU
            URL https://www.minorplanetcenter.net/    ISSN 1523-6714
                                    2024 FO3                                    
Observations:
     K24F03O* C2024 03 25.88607 11 44 06.91 +38 33 11.9          17.2 GVEF116K88
     K24F03O  C2024 03 25.88732 11 44 14.12 +38 33 13.5          16.9 GVEF116K88
     K24F03O  C2024 03 25.88857 11 44 21.29 +38 33 15.8          17.0 GVEF116K88
     K24F03O KC2024 03 25.89960 11 45 25.89 +38 33 28.0          17.3 GVEF116K88
     K24F03O KC2024 03 25.90162 11 45 37.89 +38 33 28.9          17.1 GVEF116K88
     K24F03O KC2024 03 25.91629711 47 07.58 +38 33 33.3          17.4 RoEF116K88
     K24F03O KC2024 03 25.91816211 47 19.31 +38 33 32.9          17.3 RoEF116K88
     K24F03O KC2024 03 25.91949611 47 27.71 +38 33 32.4          17.3 RoEF116K88
     K24F03O KC2024 03 25.92056111 47 34.41 +38 33 32.4          17.2 RoEF116K88
     K24F03O KC2024 03 25.92163011 47 41.20 +38 33 31.8          17.3 RoEF116K88
     K24F03O 1C2024 03 25.92860 11 47 37.69 +38 34 25.0          16.7 GVEF116C40
     K24F03O 1C2024 03 25.93150 11 47 56.42 +38 34 15.1          16.7 GVEF116C40
     K24F03O 1C2024 03 25.93440 11 48 15.24 +38 34 06.5          16.7 GVEF116C40
     K24F03O 1C2024 03 25.94363 11 49 16.67 +38 33 32.3          16.7 GVEF116C40
     K24F03O 1C2024 03 25.94650 11 49 36.23 +38 33 20.4          16.7 GVEF116C40
     K24F03O 1C2024 03 25.94939 11 49 56.00 +38 33 08.3          16.7 GVEF116C40
     K24F03O KC2024 03 25.96230911 52 34.03 +38 30 21.7          16.5 GVEF116G34
     K24F03O KC2024 03 25.96336711 52 41.77 +38 30 18.9          16.4 GVEF116G34
     K24F03O KC2024 03 25.96442411 52 49.52 +38 30 15.1          16.3 GVEF116G34
     K24F03O KC2024 03 25.96548111 52 57.29 +38 30 12.3          16.5 GVEF116G34
     K24F03O KC2024 03 25.96653711 53 05.16 +38 30 08.5          16.4 GVEF116G34
     K24F03O KC2024 03 25.96759311 53 12.98 +38 30 05.3          16.4 GVEF116G34
     K24F03O KC2024 03 25.96864811 53 20.85 +38 30 01.4          16.4 GVEF116G34
     K24F03O KC2024 03 25.99298111 56 31.00 +38 28 12.8          16.5 GVEF116G34
     K24F03O KC2024 03 25.99376111 56 37.37 +38 28 08.2          16.3 GVEF116G34
     K24F03O KC2024 03 25.99454311 56 43.78 +38 28 03.7          16.5 GVEF116G34
     K24F03O KC2024 03 25.99532511 56 50.18 +38 27 59.2          16.1 GVEF116G34
     K24F03O KC2024 03 25.99610511 56 56.63 +38 27 54.9          16.4 GVEF116G34
     K24F03O KC2024 03 25.99688611 57 03.07 +38 27 50.2          16.4 GVEF116G34
     K24F03O KC2024 03 25.99766811 57 09.57 +38 27 45.5          16.3 GVEF116G34
     K24F03O KC2024 03 25.99844811 57 16.08 +38 27 41.0          16.3 GVEF116G34
     K24F03O KC2024 03 26.04050112 03 15.01 +38 22 51.8          16.6 RoEF116K88
     K24F03O KC2024 03 26.04147612 03 24.53 +38 22 40.8          16.6 RoEF116K88
     K24F03O KC2024 03 26.04244812 03 34.05 +38 22 29.2          16.6 RoEF116K88
     K24F03O KC2024 03 26.04342612 03 43.68 +38 22 17.6          16.7 RoEF116K88
     K24F03O KC2024 03 26.04440812 03 53.39 +38 22 05.8          16.6 RoEF116K88
     K24F03O KC2024 03 26.07685612 14 15.74 +38 20 15.1          15.8 GVEF116932
     K24F03O KC2024 03 26.07983712 14 51.14 +38 19 57.6          16.0 GVEF116932
     K24F03O KC2024 03 26.08178712 15 14.44 +38 19 47.2          17.1 GVEF116932
     K24F03O KC2024 03 26.08504612 15 53.73 +38 19 26.4          16.0 GVEF116932
     K24F03O KC2024 03 26.08810612 16 31.06 +38 19 05.8          17.0 GVEF116932
     K24F03O KC2024 03 26.09055012 17 01.19 +38 18 48.7          16.1 GVEF116932
     K24F03O KC2024 03 26.11270912 16 58.46 +38 02 01.1          16.1 RoEF116K88
     K24F03O KC2024 03 26.11386812 17 13.94 +38 01 32.8          16.1 RoEF116K88
     K24F03O KC2024 03 26.11502512 17 29.44 +38 01 04.6          16.2 RoEF116K88
     K24F03O KC2024 03 26.11618412 17 45.07 +38 00 36.0          16.2 RoEF116K88
     K24F03O KC2024 03 26.11734512 18 00.79 +38 00 06.8          16.1 RoEF116K88
     K24F03O KC2024 03 26.11850512 18 16.61 +37 59 37.5          16.1 RoEF116K88
     K24F03O KC2024 03 26.12159112 18 59.09 +37 58 17.8          16.0 RoEF116K88
     K24F03O KC2024 03 26.12275012 19 15.18 +37 57 47.3          16.0 RoEF116K88
     K24F03O KC2024 03 26.12641912 20 06.72 +37 56 08.8          16.1 RoEF116K88
     K24F03O KC2024 03 26.12758512 20 23.29 +37 55 36.6          16.0 RoEF116K88
     K24F03O KB2024 03 26.18031112 34 53.666+37 27 24.59         15.7 GXEF116K74
     K24F03O KB2024 03 26.18102912 35 06.758+37 26 53.45         15.6 GXEF116K74
Observer details:
932 John J. McCarthy Obs., New Milford.  Observer M. Robson.  0.4-m f/7.5
    Schmidt-Cassegrain + CCD.
C40 Kuban State University Astrophysical Observatory.  Observers A. Ivanov, A.
    Barcov, V. Ivanov, V. Lysenko, N. Yakovenko, N. Ivanova, N. Gorbunov, G.
    Kurbatov, P. Shchukin, V. Roshchupko.  Measurer A. Ivanov.  0.51-m f/8
    reflector + CCD.
G34 Oberfrauendorf.  Observer T. Felber.  0.35-m f/6.3 Schmidt-Cassegrain +
    CCD.
K74 Muensterschwarzach Observatory, Schwarzach.  Observer C. Gerhard.  0.30-m
    f/3.75 reflector + CMO.
K88 GINOP-KHK, Piszkesteto.  Observer K. Sarneczky.  0.60-m Schmidt + CCD.
Orbital elements:
2024 FO3                                                 Earth MOID = 0.0002 AU
Epoch 2024 Mar. 31.0 TT = JDT 2460400.5                 Veres                   
M 352.38610              (2000.0)            P               Q                  
n   0.37169764     Peri.  211.37486     -0.79252206     +0.60967224             
a   1.9157677      Node     6.25034     -0.52845222     -0.67473900             
e   0.5049845      Incl.    7.62214     -0.30437976     -0.41596519             
P   2.65           H   27.77          G   0.15           U   6                  
Residuals in seconds of arc
240325 K88  0.8-  0.4-    240325 G34  0.8+  0.4-    240326 932  1.2-  1.3+
240325 K88  0.2-  0.7-    240325 G34  0.3+  0.1+    240326 932  0.1-  0.3+
240325 K88  0.4-  0.1-    240325 G34  0.8+  0.3-    240326 932  0.1-  1.4+
240325 K88  0.5+  0.1+    240325 G34  0.3+  0.1-    240326 932  0.4-  1.0+
240325 K88  0.0   0.5-    240325 G34  0.2+  0.4-    240326 932  0.6-  1.0+
240325 K88  0.5-  0.3-    240325 G34  1.2+  0.1-    240326 932  0.5-  1.3+
240325 K88  0.0   0.3-    240325 G34  1.2+  0.3-    240326 K88  0.1+  0.3-
240325 K88  0.0   0.3-    240325 G34  1.2+  0.4-    240326 K88  0.3+  0.5-
240325 K88  0.3-  0.1+    240325 G34  0.9+  0.4-    240326 K88  0.1+  0.4-
240325 K88  0.2-  0.0     240325 G34  1.3+  0.1-    240326 K88  0.2+  0.3-
240325 C40  0.8+  0.5+    240325 G34  1.1+  0.2-    240326 K88  0.0   0.4-
240325 C40  0.9+  0.7-    240325 G34  1.4+  0.2-    240326 K88  0.2+  0.4-
240325 C40  0.2-  0.1+    240325 G34  1.7+  0.0     240326 K88  0.5+  0.4-
240325 C40  0.7-  0.1-    240326 K88  0.3-  0.2-    240326 K88  0.3+  0.4-
240325 C40  0.3-  0.1-    240326 K88  0.4-  0.2+    240326 K88  0.3+  0.3-
240325 C40  1.4-  0.4+    240326 K88  0.6-  0.1+    240326 K88  0.4+  0.5-
240325 G34  1.4+  0.2-    240326 K88  0.6-  0.2+    240326 K74  0.2-  0.2-
240325 G34  1.2+  0.2+    240326 K88  0.5-  0.2+    240326 K74  0.0   0.0
Ephemeris:
2024 FO3                 a,e,i = 1.92, 0.50, 8                   q = 0.9483
Date    TT    R. A. (2000) Decl.     Delta      r    Elong.  Phase     V
2024 03 01    10 40 08.2 +35 06 36   0.1541  1.1297   152.4    23.9    25.1
...
2024 03 16    10 38 46.7 +36 59 44   0.06199 1.0441   141.7    36.2    23.3
...
2024 03 24    10 51 14.1 +37 48 24   0.01490 1.0078   136.5    42.9    20.3
...
2024 03 30    22 36 11.9 -37 15 27   0.02047 0.9855    49.4   129.7    25.0
2024 03 31    22 39 13.8 -37 20 13   0.02634 0.9822    49.9   129.0    25.4
2024 04 01    22 41 14.4 -37 22 05   0.03221 0.9790    50.4   128.1    25.8
...
2024 04 07    22 47 09.0 -37 10 50   0.06745 0.9633    54.4   122.4    26.9
...
2024 04 15    22 52 14.4 -36 30 32   0.1142  0.9508    59.8   114.3    27.4
...
2024 04 30    23 03 27.9 -34 34 22   0.1990  0.9558    69.5    99.3    27.8
M. P. C. Staff               (C) Copyright 2024 MPC           M.P.E.C. 2024-F116
    
    
More information about the Iaude
mailing list